Powered by GoogleTranslate

Occupational Safety and Health Administration OSHA

Alert: Due to routine maintenance on the OSHA website, some pages may be temporarily unavailable.
To report an emergency, file a complaint with OSHA or ask a safety and health question, call 1-800-321-6742 (OSHA).

Accident Search Results

Description, Abstract, KeywordSICNAICSDate RangeOfficeInsp Nr
Keyword: "Automotive Repair"AllAllAllAllAll

By Date

Results 101 - 120 of 490
Result Page: 1 2 3 4 5 6 7 8 9 10 ...
  # Summary Nr Event Date Report ID Fat SIC Event Description
101 200556827 12/14/2011 0625700 X 7538 Employee Dies After Clothing Catches Fire
102 202648366 09/26/2011 0950633   7537 Employee Is Burned While Drilling Into Spray Paint Can
103 202553442 09/23/2011 0950631   5015 Individual Is Killed While Salvaging Parts From Trailer
104 201128568 09/08/2011 0950613   7538 Employee Is Burned When Car Radiator Explodes
105 201853785 08/10/2011 0452110 X 5093 Salvage Worker Is Killed When Car Falls Off Lift
106 201044575 08/09/2011 0953220 X 5571 Employee Is Killed In Fall From Loading Ramp
107 202634812 07/02/2011 0950612   5511 Employee Cuts Middle Finger While Using A Shop Press
108 200998912 06/20/2011 0551800 X 5521 Worker Is Crushed, Dies After Elevated Truck Falls From Lift
109 200171072 05/31/2011 0257260 X 7539 Automotive Mechanic Is Crushed When Truck Falls From Stands
110 202634515 05/27/2011 0950612 X 7538 Employee Is Crushed By Falling Car From Auto Lift
111 201640000 03/25/2011 1054112 X 7538 Vechicle Falls From Jack Stand And Kills Mechanic
112 200802627 03/03/2011 0523300   5087 Worker Inflating Tire Fractures Pelvis When Sidewall Fails
113 202552782 03/03/2011 0950631   7549 Automotive Technician Amputates Fingers While Setting Timing
114 201185709 02/16/2011 0950611   5014 Employee Strains Back When Retrieving Tire From Stack
115 202491650 01/28/2011 0950621   7534 Employee Trying To Mount Tire Is Struck When It Pops Off Rim
116 201076320 12/24/2010 0950632   7539 Automotive Technicians Are Injured As Truck Slips From Jack
117 201273075 12/22/2010 0418300 X 7538 Worker Is Crushed Between Excavator And Bulldozer And Killed
118 202626172 12/17/2010 0950633   7538 Owner Is Killed When Crushed By Vehicle
119 202530309 11/04/2010 0950635   7537 Employee Amputates Finger When Auto Transmission Falls
120 202089462 10/24/2010 0524700   7539 Exploding Multi-Piece Wheel Rim Kills Auto Dealer Worker

Thank You for Visiting Our Website

You are exiting the Department of Labor's Web server.

The Department of Labor does not endorse, takes no responsibility for, and exercises no control over the linked organization or its views, or contents, nor does it vouch for the accuracy or accessibility of the information contained on the destination server. The Department of Labor also cannot authorize the use of copyrighted materials contained in linked Web sites. Users must request such authorization from the sponsor of the linked Web site. Thank you for visiting our site. Please click the button below to continue.

Close